Regional Weather Roundup
Issued by NWS

Home | Current Version | Previous Version | Graphics & Text | Print | Product List | Glossary Off
Versions: 1 2 3 4 5 6 7 8 9 10 11 12 13 14 15 16 17 18 19 20 21 22 23 24 25 26 27 28 29 30 31 32 33 34 35 36 37 38 39 40 41 42 43 44 45 46 47 48 49 50

000
ASUS44 KFWD 281415
RWRTX
NORTH TEXAS HOURLY WEATHER ROUNDUP
NATIONAL WEATHER SERVICE FORT WORTH TX
800 AM CST FRI NOV 28 2014

NOTE: "FAIR" INDICATES FEW OR NO CLOUDS BELOW 12,000 FEET WITH NO
SIGNIFICANT WEATHER AND/OR OBSTRUCTIONS TO VISIBILITY.

TXZ118-119-281500-
DALLAS/FORT WORTH METROPLEX

CITY           SKY/WX    TMP DP  RH WIND       PRES   REMARKS
DFW AIRPORT    PTCLDY    45  32  60 S13       30.23F WCI  39
DALLAS LOVE    PTCLDY    45  31  58 S12       30.25F WCI  39
FTW MEACHAM    CLEAR     48  35  60 S13       30.22F
DAL-EXECUTIVE  CLEAR     46  29  51 VRB5      30.24F
FTW-ALLIANCE   CLEAR     43  33  68 S5        30.22F
FTW-SPINKS     CLEAR     48  36  61 S9        30.25F
ARLINGTON      CLEAR     46  30  53 S13       30.23F
GRAND PRAIRIE  CLEAR     45  34  65 S8        30.26
ADDISON        CLEAR     46  28  49 SE10      30.24F
MESQUITE       CLEAR     39  34  81 SE6       30.27F WCI  35
LANCASTER      CLEAR     37  30  76 CALM      30.27F
$$

TXZ091>094-102>105-117-120-121-131>134-281500-
NORTH CENTRAL TEXAS

CITY           SKY/WX    TMP DP  RH WIND       PRES   REMARKS
SHRMAN/DENISON CLEAR     44  35  68 S12       30.24S WCI  39
BOWIE          CLEAR     42  32  67 S8        30.18F WCI  37
BRIDGEPORT     CLEAR     35  33  94 CALM      30.22S
DECATUR        CLEAR     46  32  58 S13G22    30.20S WCI  40
DENTON         CLEAR     43  32  65 SE7       30.23S WCI  39
MCKINNEY       CLEAR     39  34  82 S7        30.25S WCI  34
GREENVILLE     CLEAR     43  34  70 S8        30.27S WCI  38
ROCKWALL       CLEAR     43  33  68 S9G16     30.25S WCI  38
TERRELL        CLEAR     42  35  76 S6        30.28F WCI  38
WAXAHACHIE     CLEAR     41  33  72 SE6       30.27F WCI  37
CLEBURNE       CLEAR     41  36  81 S10       30.26F WCI  35
GRANBURY       CLEAR     41  35  78 SE6       30.25F WCI  37
$$

TXZ083>090-098>101-113>116-127>130-139>142-154-155-281500-
WESTERN NORTH TEXAS

CITY           SKY/WX    TMP DP  RH WIND       PRES   REMARKS
WICHITA FALLS  CLEAR     43  33  68 S15       30.13F WCI  36
WF-KICKAPOO    CLEAR     41  33  73 S9        30.16F WCI  35
VERNON         PTCLDY    43  34  70 S12       30.11F WCI  37
ABILENE        CLEAR     49  41  74 S17G31    30.18F
ABILENE-DYESS  CLEAR     47  38  70 SW18      30.16S
BRECKENRIDGE   CLEAR     48  36  63 S9        30.18F
GRAHAM         CLEAR     45  36  71 SE6       30.18S
MINERAL WELLS  CLEAR     39  32  76 SE8       30.20F WCI  33
STEPHENVILLE   CLEAR     40  33  76 S5        30.26S WCI  37
COMANCHE       CLEAR     46  37  73 S13       30.24S WCI  40
BROWNWOOD      CLEAR     39  36  87 S7        30.25F WCI  34
COLEMAN        CLEAR     42  38  85 S8        30.23F WCI  37
BRADY          CLOUDY    50  48  93 S12       30.24R
$$

TXZ143>147-156>162-174-175-281500-
CENTRAL TEXAS

CITY           SKY/WX    TMP DP  RH WIND       PRES   REMARKS
WACO           PTCLDY    46  41  82 S12       30.29F
WACO-TSTC      CLEAR     39  36  87 S5        30.30S WCI  36
WACO-MCGREGOR  CLEAR     46  37  71 S8        30.29F
HILLSBORO      PTCLDY    46  34  63 S10       30.28S
CORSICANA      CLEAR     41  34  76 S6        30.30F WCI  37
MEXIA          CLEAR     40  34  79 S6        30.30S WCI  36
HEARNE         CLEAR     41  36  81 CALM      30.34S
CAMERON        MOCLDY    44  38  81 CALM      30.32S
TEMPLE         PTCLDY    43  34  70 S8        30.29S WCI  38
KILLEEN        CLOUDY    46  36  68 S9        30.28F
KILLEEN-SKYLRK MOCLDY    45  32  61 S3        30.29S
FORT HOOD      CLOUDY    48  34  58 SE5       30.29S
GATESVILLE     MOCLDY    41  36  81 CALM      30.30S
HAMILTON       MOCLDY    48  42  79 S10       30.26F
LAMPASAS       CLOUDY    50  48  90 CALM      30.27R
$$

TXZ095>097-106>112-122>126-135>138-148>153-164>167-281500-
EAST TEXAS

CITY           SKY/WX    TMP DP  RH WIND       PRES   REMARKS
PARIS          CLEAR     36  30  80 SE7       30.29F WCI  30
SULPHUR SPRNGS CLEAR     44  33  64 S8        30.31S WCI  40
MOUNT PLEASANT CLEAR     37  33  87 SE5       30.33S WCI  33
MINEOLA        CLEAR     43  34  70 SE5       30.31F
TYLER          CLEAR     42  34  73 S8        30.31S WCI  37
LONGVIEW       SUNNY     41  35  79 SE9       30.33S WCI  35
MARSHALL       SUNNY     38  35  89 S3        30.37S
ATHENS         CLEAR     36  34  93 CALM      30.30F
PALESTINE      CLEAR     44  38  80 SE6       30.33S
JACKSONVILLE   SUNNY     42  34  73 S12       30.33F WCI  35
HENDERSON      SUNNY     39  35  85 SE5       30.34F WCI  36
NACOGDOCHES    SUNNY     39  34  81 SE5       30.35F WCI  36
LUFKIN         SUNNY     42  34  73 SE7       30.36F WCI  38
$$

SUPPLEMENTAL OBSERVATIONS (CENTRAL)

CITY           SKY/WX    TMP DP  RH WIND       PRES   REMARKS
CADDO GRASSLND   N/A     41  32  70 S8          N/A  WCI  36
PAT MAYSE LAKE   N/A     37  32  81 NE2         N/A
GREENVILLE       N/A     45  32  61 S7          N/A
CEDAR HILL       N/A     52  30  43 S10         N/A
PALESTINE        N/A     46  36  66 S6          N/A
LAKE LIMESTONE   N/A     45  36  70 SE3         N/A
MCGREGOR         N/A     43  36  75 SW6         N/A  WCI  39
TEMPLE           N/A     43  36  75 S3          N/A
$$

SUPPLEMENTAL OBSERVATIONS (WEST)

CITY           SKY/WX    TMP DP  RH WIND       PRES   REMARKS
MILLERS CREEK    N/A     39  30  70 SW7         N/A  WCI  34
POSSUM KINGDOM   N/A     46  34  61 S7          N/A
LBJ GRASSLAND    N/A     45  32  61 S8          N/A
GRANBURY         N/A     43  34  70 SE6         N/A  WCI  39
COMANCHE         N/A     48  37  66 SW18G26     N/A
HAMBY            N/A     48  39  71 SW16        N/A
$$

SUPPLEMENTAL OBSERVATIONS (EAST)

CITY           SKY/WX    TMP DP  RH WIND       PRES   REMARKS
TEXARKANA        N/A     36  32  87 SE2         N/A
LINDEN           N/A     36  32  87 E1          N/A
CADDO LAKE       N/A     39  34  81 S3          N/A
GILMER           N/A     43  34  70 S6          N/A  WCI  39
HENDERSON        N/A     41  34  75 S5          N/A  WCI  38
LUFKIN           N/A     45  36  70 MISG        N/A
N SABINE NF      N/A     34  32  93 MISG        N/A
$$

SUPPLEMENTAL OBSERVATIONS ARE A COLLECTION OF AUTOMATED INSTRUMENTS
THAT ARE MAINTAINED BY A VARIETY OF FEDERAL AND STATE AGENCIES.
CERTAIN ELEMENTS...SUCH AS HUMIDITY VALUES AND SUSTAINED WIND
SPEEDS...MAY BE APPROXIMATED.



USA.gov is the U.S. government's official web portal to all federal, state and local government web resources and services.